Time,TemperatureF,DewpointF,PressureIn,WindDirection,WindDirectionDegrees,WindSpeedMPH,WindSpeedGustMPH,Humidity,HourlyPrecipIn,Conditions,Clouds,dailyrainin,SoftwareType,DateUTC
2013-02-12 00:00:00,50.9,50.9,30.04,West,263,0.0,0.0,100,0.00,CLR,,0.17,WeatherDisplay:10.37,2013-02-12 05:00:00,
2013-02-12 00:05:00,50.9,50.9,30.04,West,263,0.0,0.0,100,0.00,RA,,0.00,WeatherDisplay:10.37,2013-02-12 05:05:00,
2013-02-12 00:10:00,50.8,50.8,30.04,West,263,0.0,0.0,100,0.00,RA,,0.00,WeatherDisplay:10.37,2013-02-12 05:10:00,
2013-02-12 00:15:00,50.8,50.8,30.05,West,263,0.0,0.0,100,0.00,CLR,,0.00,WeatherDisplay:10.37,2013-02-12 05:15:00,
2013-02-12 00:20:00,50.8,50.8,30.04,West,263,0.0,0.0,100,0.00,CLR,,0.00,WeatherDisplay:10.37,2013-02-12 05:20:00,
2013-02-12 00:25:00,50.8,50.8,30.04,West,263,0.0,0.0,100,0.00,CLR,,0.00,WeatherDisplay:10.37,2013-02-12 05:25:00,
2013-02-12 00:30:00,50.8,50.8,30.06,West,263,0.0,0.0,100,0.00,CLR,,0.00,WeatherDisplay:10.37,2013-02-12 05:30:00,
2013-02-12 00:35:00,50.8,50.8,30.06,West,263,0.0,0.0,100,0.00,CLR,,0.00,WeatherDisplay:10.37,2013-02-12 05:35:00,
2013-02-12 00:40:00,50.7,50.7,30.06,West,263,0.0,0.0,100,0.00,CLR,,0.00,WeatherDisplay:10.37,2013-02-12 05:40:00,
2013-02-12 00:45:00,50.6,50.6,30.06,West,263,0.0,0.0,100,0.00,CLR,,0.00,WeatherDisplay:10.37,2013-02-12 05:45:00,
2013-02-12 00:50:00,50.5,50.5,30.05,West,263,0.0,0.0,100,0.00,CLR,,0.00,WeatherDisplay:10.37,2013-02-12 05:50:00,
2013-02-12 00:55:00,50.4,50.4,30.05,West,263,0.0,0.0,100,0.00,CLR,,0.00,WeatherDisplay:10.37,2013-02-12 05:55:00,
2013-02-12 01:00:00,50.5,50.5,30.04,West,263,0.0,0.0,100,0.00,CLR,,0.00,WeatherDisplay:10.37,2013-02-12 06:00:00,
2013-02-12 01:05:00,50.3,50.3,30.04,West,263,0.0,0.0,100,0.00,CLR,,0.00,WeatherDisplay:10.37,2013-02-12 06:05:00,
2013-02-12 01:10:00,50.2,50.2,30.03,West,263,0.0,0.0,100,0.00,CLR,,0.00,WeatherDisplay:10.37,2013-02-12 06:10:00,
2013-02-12 01:15:00,50.0,50.0,30.03,West,263,0.0,0.0,100,0.00,CLR,,0.00,WeatherDisplay:10.37,2013-02-12 06:15:00,
2013-02-12 01:20:00,50.0,50.0,30.03,West,263,0.0,0.0,100,0.00,CLR,,0.00,WeatherDisplay:10.37,2013-02-12 06:20:00,
2013-02-12 01:25:00,50.0,50.0,30.03,West,263,0.0,0.0,100,0.00,CLR,,0.00,WeatherDisplay:10.37,2013-02-12 06:25:00,
2013-02-12 01:30:00,49.9,49.9,30.03,West,263,0.0,0.0,100,0.00,CLR,,0.00,WeatherDisplay:10.37,2013-02-12 06:30:00,
2013-02-12 01:35:00,49.7,49.7,30.02,West,263,0.0,0.0,100,0.00,CLR,,0.00,WeatherDisplay:10.37,2013-02-12 06:35:00,
2013-02-12 01:40:00,49.4,49.4,30.02,West,263,0.0,0.0,100,0.00,CLR,,0.00,WeatherDisplay:10.37,2013-02-12 06:40:00,
2013-02-12 01:45:00,49.0,49.0,30.03,West,263,0.0,0.0,100,0.00,CLR,,0.00,WeatherDisplay:10.37,2013-02-12 06:45:00,
2013-02-12 01:50:00,48.9,48.9,30.03,West,263,0.0,0.0,100,0.00,CLR,,0.00,WeatherDisplay:10.37,2013-02-12 06:50:00,
2013-02-12 01:55:00,48.8,48.8,30.03,West,263,0.0,0.0,100,0.00,CLR,,0.00,WeatherDisplay:10.37,2013-02-12 06:55:00,
2013-02-12 02:00:00,48.5,48.5,30.03,West,263,0.0,0.0,100,0.00,CLR,,0.00,WeatherDisplay:10.37,2013-02-12 07:00:00,
2013-02-12 02:05:00,48.2,48.2,30.02,West,263,0.0,0.0,100,0.00,CLR,,0.00,WeatherDisplay:10.37,2013-02-12 07:05:00,
2013-02-12 02:10:00,48.1,48.1,30.02,West,263,0.0,0.0,100,0.00,CLR,,0.00,WeatherDisplay:10.37,2013-02-12 07:10:00,
2013-02-12 02:15:00,47.9,47.9,30.03,West,263,0.0,0.0,100,0.00,CLR,,0.00,WeatherDisplay:10.37,2013-02-12 07:15:00,
2013-02-12 02:20:00,47.8,47.8,30.04,West,263,0.0,0.0,100,0.00,CLR,,0.00,WeatherDisplay:10.37,2013-02-12 07:20:00,
2013-02-12 02:25:00,47.8,47.8,30.04,West,263,0.0,0.0,100,0.00,CLR,,0.00,WeatherDisplay:10.37,2013-02-12 07:25:00,
2013-02-12 02:30:00,47.7,47.7,30.04,West,263,0.0,0.0,100,0.00,CLR,,0.00,WeatherDisplay:10.37,2013-02-12 07:30:00,
2013-02-12 02:35:00,47.6,47.6,30.05,West,263,0.0,0.0,100,0.00,CLR,,0.00,WeatherDisplay:10.37,2013-02-12 07:35:00,
2013-02-12 02:40:00,47.5,47.5,30.04,West,263,0.0,0.0,100,0.00,CLR,,0.00,WeatherDisplay:10.37,2013-02-12 07:40:00,
2013-02-12 02:45:00,47.4,47.4,30.04,West,263,0.0,0.0,100,0.00,CLR,,0.00,WeatherDisplay:10.37,2013-02-12 07:45:00,
2013-02-12 02:50:00,47.3,47.3,30.03,West,263,0.0,0.0,100,0.00,CLR,,0.00,WeatherDisplay:10.37,2013-02-12 07:50:00,
2013-02-12 02:55:00,47.3,47.3,30.03,West,263,0.0,0.0,100,0.00,CLR,,0.00,WeatherDisplay:10.37,2013-02-12 07:55:00,
2013-02-12 03:00:00,47.3,47.3,30.03,West,263,0.0,0.0,100,0.00,CLR,,0.00,WeatherDisplay:10.37,2013-02-12 08:00:00,
2013-02-12 03:05:00,47.2,47.2,30.03,West,263,0.0,0.0,100,0.00,CLR,,0.00,WeatherDisplay:10.37,2013-02-12 08:05:00,
2013-02-12 03:10:00,47.3,47.3,30.03,West,263,0.0,0.0,100,0.00,CLR,,0.00,WeatherDisplay:10.37,2013-02-12 08:10:00,
2013-02-12 03:15:00,47.1,47.1,30.02,West,263,0.0,0.0,100,0.00,CLR,,0.00,WeatherDisplay:10.37,2013-02-12 08:15:00,
2013-02-12 03:20:00,46.9,46.9,30.03,West,263,0.0,0.0,100,0.00,CLR,,0.00,WeatherDisplay:10.37,2013-02-12 08:20:00,
2013-02-12 03:25:00,46.9,46.9,30.03,West,263,0.0,0.0,100,0.00,CLR,,0.00,WeatherDisplay:10.37,2013-02-12 08:25:00,
2013-02-12 03:30:00,46.7,46.7,30.03,West,263,0.0,0.0,100,0.00,CLR,,0.00,WeatherDisplay:10.37,2013-02-12 08:30:00,
2013-02-12 03:36:00,46.7,46.7,30.02,West,263,0.0,0.0,100,0.00,CLR,,0.00,WeatherDisplay:10.37,2013-02-12 08:36:00,
2013-02-12 03:41:00,46.5,46.5,30.01,West,263,0.0,0.0,100,0.00,CLR,,0.00,WeatherDisplay:10.37,2013-02-12 08:41:00,
2013-02-12 03:46:00,46.3,46.3,30.01,West,263,0.0,0.0,100,0.00,,,0.00,WeatherDisplay:10.37,2013-02-12 08:46:00,
2013-02-12 03:51:00,46.0,46.0,30.00,West,263,0.0,0.0,100,0.00,,,0.00,WeatherDisplay:10.37,2013-02-12 08:51:00,
2013-02-12 03:56:00,45.9,45.9,30.02,West,263,0.0,0.0,100,0.00,,,0.00,WeatherDisplay:10.37,2013-02-12 08:56:00,
2013-02-12 04:01:00,46.1,46.1,30.02,West,263,0.0,0.0,100,0.00,,,0.00,WeatherDisplay:10.37,2013-02-12 09:01:00,
2013-02-12 04:06:00,45.9,45.9,30.01,West,263,0.0,0.0,100,0.00,,,0.00,WeatherDisplay:10.37,2013-02-12 09:06:00,
2013-02-12 04:11:00,45.8,45.8,30.01,West,263,0.0,0.0,100,0.00,,,0.00,WeatherDisplay:10.37,2013-02-12 09:11:00,
2013-02-12 04:16:00,45.7,45.7,30.02,West,263,0.0,0.0,100,0.00,,,0.00,WeatherDisplay:10.37,2013-02-12 09:16:00,
2013-02-12 04:21:00,45.6,45.6,30.03,West,263,0.0,0.0,100,0.00,,,0.00,WeatherDisplay:10.37,2013-02-12 09:21:00,
2013-02-12 04:26:00,45.5,45.5,30.03,West,261,2.3,0.0,100,0.00,,,0.00,WeatherDisplay:10.37,2013-02-12 09:26:00,
2013-02-12 04:31:00,45.4,45.4,30.03,West,261,0.0,0.0,100,0.00,,,0.00,WeatherDisplay:10.37,2013-02-12 09:31:00,
2013-02-12 04:36:00,45.4,45.1,30.04,West,277,0.0,0.0,99,0.00,,,0.00,WeatherDisplay:10.37,2013-02-12 09:36:00,
2013-02-12 04:41:00,45.5,44.7,30.04,West,260,3.5,3.5,97,0.00,CLR,,0.00,WeatherDisplay:10.37,2013-02-12 09:41:00,
2013-02-12 04:46:00,45.8,44.2,30.03,West,272,1.1,0.0,94,0.00,CLR,,0.00,WeatherDisplay:10.37,2013-02-12 09:46:00,
2013-02-12 04:51:00,46.0,42.9,30.04,West,277,2.3,0.0,89,0.00,CLR,,0.00,WeatherDisplay:10.37,2013-02-12 09:51:00,
2013-02-12 04:56:00,46.2,42.2,30.04,WNW,302,3.5,3.5,86,0.00,CLR,,0.00,WeatherDisplay:10.37,2013-02-12 09:56:00,
2013-02-12 05:01:00,46.4,41.2,30.04,NW,306,1.1,1.4,82,0.00,CLR,,0.00,WeatherDisplay:10.37,2013-02-12 10:01:00,
2013-02-12 05:06:00,46.6,40.4,30.04,WNW,295,1.1,1.1,79,0.00,CLR,,0.00,WeatherDisplay:10.37,2013-02-12 10:06:00,
2013-02-12 05:11:00,46.7,39.5,30.03,West,275,3.5,3.5,76,0.00,CLR,,0.00,WeatherDisplay:10.37,2013-02-12 10:11:00,
2013-02-12 05:16:00,46.7,39.5,30.04,NNW,340,0.0,0.0,76,0.00,CLR,,0.00,WeatherDisplay:10.37,2013-02-12 10:16:00,
2013-02-12 05:21:00,46.8,39.6,30.04,West,281,0.0,0.0,76,0.00,CLR,,0.00,WeatherDisplay:10.37,2013-02-12 10:21:00,
2013-02-12 05:26:00,46.7,39.2,30.04,NW,312,0.0,0.0,75,0.00,CLR,,0.00,WeatherDisplay:10.37,2013-02-12 10:26:00,
2013-02-12 05:31:00,46.6,39.1,30.04,NW,312,0.0,0.0,75,0.00,CLR,,0.00,WeatherDisplay:10.37,2013-02-12 10:31:00,
2013-02-12 05:36:00,46.5,39.0,30.05,NW,312,0.0,0.0,75,0.00,CLR,,0.00,WeatherDisplay:10.37,2013-02-12 10:36:00,
2013-02-12 05:41:00,46.4,39.2,30.04,NW,312,0.0,0.0,76,0.00,CLR,,0.00,WeatherDisplay:10.37,2013-02-12 10:41:00,
2013-02-12 05:46:00,46.3,41.4,30.05,NW,312,0.0,0.0,83,0.00,CLR,,0.00,WeatherDisplay:10.37,2013-02-12 10:46:00,
2013-02-12 05:51:00,46.2,41.6,30.05,NW,312,0.0,0.0,84,0.00,CLR,,0.00,WeatherDisplay:10.37,2013-02-12 10:51:00,
2013-02-12 05:56:00,45.8,40.6,30.05,WNW,285,1.1,1.1,82,0.00,CLR,,0.00,WeatherDisplay:10.37,2013-02-12 10:56:00,
2013-02-12 06:01:00,45.4,40.5,30.05,NW,311,1.1,1.1,83,0.00,CLR,,0.00,WeatherDisplay:10.37,2013-02-12 11:01:00,
2013-02-12 06:06:00,45.0,40.8,30.04,NW,315,4.6,4.6,85,0.00,CLR,,0.00,WeatherDisplay:10.37,2013-02-12 11:06:00,
2013-02-12 06:11:00,44.8,39.0,30.04,WSW,258,2.3,2.3,80,0.00,CLR,,0.00,WeatherDisplay:10.37,2013-02-12 11:11:00,
2013-02-12 06:16:00,45.0,37.9,30.04,West,261,2.4,2.4,76,0.00,CLR,,0.00,WeatherDisplay:10.37,2013-02-12 11:16:00,
2013-02-12 06:21:00,45.0,37.9,30.03,NW,323,0.0,0.0,76,0.00,CLR,,0.00,WeatherDisplay:10.37,2013-02-12 11:21:00,
2013-02-12 06:26:00,45.0,37.2,30.03,NW,323,0.0,0.0,74,0.00,CLR,,0.00,WeatherDisplay:10.37,2013-02-12 11:26:00,
2013-02-12 06:31:00,45.0,37.2,30.04,West,264,4.6,4.6,74,0.00,CLR,,0.00,WeatherDisplay:10.37,2013-02-12 11:31:00,
2013-02-12 06:36:00,44.9,36.4,30.06,West,264,0.0,0.0,72,0.00,CLR,,0.00,WeatherDisplay:10.37,2013-02-12 11:36:00,
2013-02-12 06:41:00,44.9,38.8,30.05,West,264,0.0,0.0,79,0.00,CLR,,0.00,WeatherDisplay:10.37,2013-02-12 11:41:00,
2013-02-12 06:46:00,44.5,38.1,30.04,West,264,0.0,0.0,78,0.00,CLR,,0.00,WeatherDisplay:10.37,2013-02-12 11:46:00,
2013-02-12 06:51:00,44.4,39.6,30.04,West,264,0.0,0.0,83,0.00,CLR,,0.00,WeatherDisplay:10.37,2013-02-12 11:51:00,
2013-02-12 06:56:00,44.3,39.8,30.04,West,264,0.0,0.0,84,0.00,CLR,,0.00,WeatherDisplay:10.37,2013-02-12 11:56:00,
2013-02-12 07:01:00,44.3,40.7,30.06,West,264,0.0,0.0,87,0.00,CLR,,0.00,WeatherDisplay:10.37,2013-02-12 12:01:00,
2013-02-12 07:06:00,44.4,40.2,30.06,West,264,0.0,0.0,85,0.00,CLR,,0.00,WeatherDisplay:10.37,2013-02-12 12:06:00,
2013-02-12 07:11:00,44.2,40.3,30.06,West,264,0.0,0.0,86,0.00,CLR,,0.00,WeatherDisplay:10.37,2013-02-12 12:11:00,
2013-02-12 07:16:00,43.8,39.0,30.06,West,264,0.0,0.0,83,0.00,CLR,,0.00,WeatherDisplay:10.37,2013-02-12 12:16:00,
2013-02-12 07:21:00,43.8,41.6,30.07,West,264,0.0,0.0,92,0.00,CLR,,0.00,WeatherDisplay:10.37,2013-02-12 12:21:00,
2013-02-12 07:26:00,43.7,40.4,30.06,West,264,0.0,0.0,88,0.00,CLR,,0.00,WeatherDisplay:10.37,2013-02-12 12:26:00,
2013-02-12 07:31:00,43.6,40.9,30.06,West,264,0.0,0.0,90,0.00,CLR,,0.00,WeatherDisplay:10.37,2013-02-12 12:31:00,
2013-02-12 07:36:00,43.5,41.9,30.06,West,264,0.0,0.0,94,0.00,CLR,,0.00,WeatherDisplay:10.37,2013-02-12 12:36:00,
2013-02-12 07:41:00,43.4,41.5,30.07,WNW,284,0.0,0.0,93,0.00,CLR,,0.00,WeatherDisplay:10.37,2013-02-12 12:41:00,
2013-02-12 07:46:00,43.3,41.1,30.07,SW,232,2.3,2.3,92,0.00,CLR,,0.00,WeatherDisplay:10.37,2013-02-12 12:46:00,
2013-02-12 07:51:00,43.2,40.5,30.07,WNW,287,4.6,4.6,90,0.00,CLR,,0.00,WeatherDisplay:10.37,2013-02-12 12:51:00,
2013-02-12 07:56:00,43.5,38.7,30.07,NW,325,4.6,4.6,83,0.00,CLR,,0.00,WeatherDisplay:10.37,2013-02-12 12:56:00,
2013-02-12 08:01:00,44.6,37.2,30.07,NW,305,5.8,5.8,75,0.00,CLR,,0.00,WeatherDisplay:10.37,2013-02-12 13:01:00,
2013-02-12 08:06:00,45.6,38.1,30.08,NW,318,4.7,4.7,75,0.00,CLR,,0.00,WeatherDisplay:10.37,2013-02-12 13:06:00,
2013-02-12 08:11:00,46.8,39.6,30.08,West,270,4.2,4.2,76,0.00,CLR,,0.00,WeatherDisplay:10.37,2013-02-12 13:11:00,
2013-02-12 08:16:00,47.7,39.8,30.08,West,278,0.0,0.0,74,0.00,CLR,,0.00,WeatherDisplay:10.37,2013-02-12 13:16:00,
2013-02-12 08:22:00,48.2,37.0,30.08,NW,312,4.2,4.2,65,0.00,CLR,,0.00,WeatherDisplay:10.37,2013-02-12 13:22:00,
2013-02-12 08:27:00,48.3,37.1,30.09,WNW,298,2.7,2.7,65,0.00,CLR,,0.00,WeatherDisplay:10.37,2013-02-12 13:27:00,
2013-02-12 08:32:00,48.6,36.6,30.10,NNW,340,2.3,2.3,63,0.00,CLR,,0.00,WeatherDisplay:10.37,2013-02-12 13:32:00,
2013-02-12 08:37:00,48.6,35.3,30.10,WNW,289,3.5,3.5,60,0.00,CLR,,0.00,WeatherDisplay:10.37,2013-02-12 13:37:00,
2013-02-12 08:42:00,48.4,34.7,30.10,NW,322,5.8,5.8,59,0.00,CLR,,0.00,WeatherDisplay:10.37,2013-02-12 13:42:00,
2013-02-12 08:47:00,48.2,34.5,30.09,NW,323,5.2,5.2,59,0.00,CLR,,0.00,WeatherDisplay:10.37,2013-02-12 13:47:00,
2013-02-12 08:52:00,48.2,34.1,30.10,WNW,301,4.6,4.6,58,0.00,CLR,,0.00,WeatherDisplay:10.37,2013-02-12 13:52:00,
2013-02-12 08:57:00,48.2,34.1,30.09,NW,319,2.3,2.3,58,0.00,CLR,,0.00,WeatherDisplay:10.37,2013-02-12 13:57:00,
2013-02-12 09:02:00,48.4,34.3,30.10,WNW,285,6.9,6.9,58,0.00,CLR,,0.00,WeatherDisplay:10.37,2013-02-12 14:02:00,
2013-02-12 09:07:00,48.5,34.4,30.09,North,7,0.0,0.4,58,0.00,CLR,,0.00,WeatherDisplay:10.37,2013-02-12 14:07:00,
2013-02-12 09:12:00,48.6,34.5,30.09,WNW,292,2.3,2.3,58,0.00,CLR,,0.00,WeatherDisplay:10.37,2013-02-12 14:12:00,
2013-02-12 09:17:00,48.6,34.5,30.08,WNW,289,2.3,2.3,58,0.00,CLR,,0.00,WeatherDisplay:10.37,2013-02-12 14:17:00,
2013-02-12 09:22:00,48.7,34.6,30.08,West,280,1.2,1.2,58,0.00,CLR,,0.00,WeatherDisplay:10.37,2013-02-12 14:22:00,
2013-02-12 09:27:00,48.8,34.7,30.09,WSW,239,0.0,0.0,58,0.00,CLR,,0.00,WeatherDisplay:10.37,2013-02-12 14:27:00,
2013-02-12 09:32:00,49.2,35.0,30.09,WNW,301,3.7,3.7,58,0.00,CLR,,0.00,WeatherDisplay:10.37,2013-02-12 14:32:00,
2013-02-12 09:37:00,49.5,35.3,30.09,WNW,289,0.0,0.0,58,0.00,CLR,,0.00,WeatherDisplay:10.37,2013-02-12 14:37:00,
2013-02-12 09:42:00,49.9,34.8,30.09,WNW,284,3.5,3.5,56,0.00,CLR,,0.00,WeatherDisplay:10.37,2013-02-12 14:42:00,
2013-02-12 09:47:00,50.0,34.0,30.09,North,360,0.0,0.0,54,0.00,CLR,,0.00,WeatherDisplay:10.37,2013-02-12 14:47:00,
2013-02-12 09:52:00,50.2,34.6,30.09,West,263,0.0,0.0,55,0.00,CLR,,0.00,WeatherDisplay:10.37,2013-02-12 14:52:00,
2013-02-12 09:57:00,50.6,34.6,30.08,WNW,296,3.5,3.5,54,0.00,CLR,,0.00,WeatherDisplay:10.37,2013-02-12 14:57:00,
2013-02-12 10:02:00,51.0,34.9,30.08,WNW,282,2.3,2.3,54,0.00,CLR,,0.00,WeatherDisplay:10.37,2013-02-12 15:02:00,
2013-02-12 10:07:00,51.4,34.8,30.08,NW,320,1.7,1.7,53,0.00,CLR,,0.00,WeatherDisplay:10.37,2013-02-12 15:07:00,
2013-02-12 10:12:00,51.7,34.1,30.09,WNW,289,4.6,4.6,51,0.00,CLR,,0.00,WeatherDisplay:10.37,2013-02-12 15:12:00,
2013-02-12 10:17:00,52.0,33.9,30.09,West,270,0.0,0.0,50,0.00,CLR,,0.00,WeatherDisplay:10.37,2013-02-12 15:17:00,
2013-02-12 10:22:00,52.3,34.2,30.08,WNW,284,3.5,3.5,50,0.00,CLR,,0.00,WeatherDisplay:10.37,2013-02-12 15:22:00,
2013-02-12 10:27:00,52.7,34.1,30.08,NW,319,1.1,0.0,49,0.00,CLR,,0.00,WeatherDisplay:10.37,2013-02-12 15:27:00,
2013-02-12 10:32:00,53.0,33.8,30.08,NW,319,0.0,0.0,48,0.00,CLR,,0.00,WeatherDisplay:10.37,2013-02-12 15:32:00,
2013-02-12 10:37:00,53.2,33.5,30.08,NE,54,2.3,2.3,47,0.00,CLR,,0.00,WeatherDisplay:10.37,2013-02-12 15:37:00,
2013-02-12 10:42:00,53.5,33.2,30.08,NNW,330,0.0,0.2,46,0.00,CLR,,0.00,WeatherDisplay:10.37,2013-02-12 15:42:00,
2013-02-12 10:47:00,53.6,33.8,30.08,NNW,337,0.0,0.1,47,0.00,CLR,,0.00,WeatherDisplay:10.37,2013-02-12 15:47:00,
2013-02-12 10:52:00,53.9,34.1,30.08,NNE,13,1.1,1.1,47,0.00,CLR,,0.00,WeatherDisplay:10.37,2013-02-12 15:52:00,
2013-02-12 10:57:00,54.1,33.8,30.08,ENE,61,0.0,0.0,46,0.00,CLR,,0.00,WeatherDisplay:10.37,2013-02-12 15:57:00,
2013-02-12 11:02:00,54.6,34.8,30.07,ESE,107,0.0,0.0,47,0.00,CLR,,0.00,WeatherDisplay:10.37,2013-02-12 16:02:00,
2013-02-12 11:07:00,54.9,33.9,30.07,NE,49,0.0,0.0,45,0.00,CLR,,0.00,WeatherDisplay:10.37,2013-02-12 16:07:00,
2013-02-12 11:12:00,55.4,34.4,30.07,NNE,16,0.0,0.0,45,0.00,CLR,,0.00,WeatherDisplay:10.37,2013-02-12 16:12:00,
2013-02-12 11:17:00,55.8,34.8,30.07,East,88,0.0,0.0,45,0.00,CLR,,0.00,WeatherDisplay:10.37,2013-02-12 16:17:00,
2013-02-12 11:22:00,56.2,34.6,30.07,East,88,0.0,0.0,44,0.00,CLR,,0.00,WeatherDisplay:10.37,2013-02-12 16:22:00,
2013-02-12 11:27:00,56.6,34.3,30.07,East,88,0.0,0.0,43,0.00,CLR,,0.00,WeatherDisplay:10.37,2013-02-12 16:27:00,
2013-02-12 11:32:00,56.8,35.1,30.07,NE,49,0.0,0.0,44,0.00,CLR,,0.00,WeatherDisplay:10.37,2013-02-12 16:32:00,
2013-02-12 11:37:00,57.2,35.5,30.07,North,349,2.4,2.4,44,0.00,CLR,,0.00,WeatherDisplay:10.37,2013-02-12 16:37:00,
2013-02-12 11:42:00,57.6,34.7,30.07,NNW,343,0.0,0.0,42,0.00,CLR,,0.00,WeatherDisplay:10.37,2013-02-12 16:42:00,
2013-02-12 11:47:00,57.8,34.8,30.06,NNW,343,0.0,0.0,42,0.00,CLR,,0.00,WeatherDisplay:10.37,2013-02-12 16:47:00,
2013-02-12 11:52:00,57.8,34.2,30.06,NNW,343,0.0,0.0,41,0.00,CLR,,0.00,WeatherDisplay:10.37,2013-02-12 16:52:00,
2013-02-12 11:57:00,58.0,35.0,30.06,NNW,343,0.0,0.0,42,0.00,CLR,,0.00,WeatherDisplay:10.37,2013-02-12 16:57:00,
2013-02-12 12:02:00,58.4,36.0,30.06,NNW,343,0.0,0.0,43,0.00,CLR,,0.00,WeatherDisplay:10.37,2013-02-12 17:02:00,
2013-02-12 12:07:00,59.0,35.9,30.06,West,280,1.1,0.0,42,0.00,CLR,,0.00,WeatherDisplay:10.37,2013-02-12 17:07:00,
2013-02-12 12:12:00,59.2,35.5,30.05,West,280,0.0,0.0,41,0.00,CLR,,0.00,WeatherDisplay:10.37,2013-02-12 17:12:00,
2013-02-12 12:17:00,59.1,34.8,30.04,NW,322,1.1,1.1,40,0.00,CLR,,0.00,WeatherDisplay:10.37,2013-02-12 17:17:00,
2013-02-12 12:22:00,59.0,34.1,30.06,NW,322,0.0,0.0,39,0.00,CLR,,0.00,WeatherDisplay:10.37,2013-02-12 17:22:00,
2013-02-12 12:27:00,58.8,32.6,30.06,NW,322,0.0,0.0,37,0.00,CLR,,0.00,WeatherDisplay:10.37,2013-02-12 17:27:00,
2013-02-12 12:32:00,58.7,31.8,30.04,NW,322,0.0,0.0,36,0.00,CLR,,0.00,WeatherDisplay:10.37,2013-02-12 17:32:00,
2013-02-12 12:37:00,58.7,31.1,30.04,NW,322,0.0,0.0,35,0.00,CLR,,0.00,WeatherDisplay:10.37,2013-02-12 17:37:00,
2013-02-12 12:42:00,58.8,31.9,30.04,WNW,294,1.1,1.1,36,0.00,CLR,,0.00,WeatherDisplay:10.37,2013-02-12 17:42:00,
2013-02-12 12:47:00,59.0,32.7,30.04,WNW,289,4.6,4.6,37,0.00,CLR,,0.00,WeatherDisplay:10.37,2013-02-12 17:47:00,
2013-02-12 12:52:00,59.1,31.4,30.04,NW,320,0.0,0.0,35,0.00,CLR,,0.00,WeatherDisplay:10.37,2013-02-12 17:52:00,
2013-02-12 12:57:00,59.4,34.4,30.04,WSW,250,2.3,2.3,39,0.00,CLR,,0.00,WeatherDisplay:10.37,2013-02-12 17:57:00,
2013-02-12 13:02:00,59.4,30.3,30.04,SW,233,1.5,1.5,33,0.00,CLR,,0.00,WeatherDisplay:10.37,2013-02-12 18:02:00,
2013-02-12 13:07:00,59.5,33.2,30.04,SSE,150,0.0,0.0,37,0.00,CLR,,0.00,WeatherDisplay:10.37,2013-02-12 18:07:00,
2013-02-12 13:12:00,59.5,33.2,30.04,SSE,150,0.0,0.0,37,0.00,CLR,,0.00,WeatherDisplay:10.37,2013-02-12 18:12:00,
2013-02-12 13:17:00,59.6,32.6,30.03,SSE,150,0.0,0.0,36,0.00,CLR,,0.00,WeatherDisplay:10.37,2013-02-12 18:17:00,
2013-02-12 13:22:00,60.0,32.9,30.03,SSE,150,0.0,0.0,36,0.00,CLR,,0.00,WeatherDisplay:10.37,2013-02-12 18:22:00,
2013-02-12 13:27:00,60.1,33.0,30.03,SSE,150,0.0,0.0,36,0.00,CLR,,0.00,WeatherDisplay:10.37,2013-02-12 18:27:00,
2013-02-12 13:32:00,60.2,33.1,30.03,SSE,150,0.0,0.0,36,0.00,CLR,,0.00,WeatherDisplay:10.37,2013-02-12 18:32:00,
2013-02-12 13:37:00,60.1,31.6,30.02,SSE,150,0.0,0.0,34,0.00,CLR,,0.00,WeatherDisplay:10.37,2013-02-12 18:37:00,
2013-02-12 13:42:00,60.0,32.2,30.02,SSE,150,0.0,0.0,35,0.00,CLR,,0.00,WeatherDisplay:10.37,2013-02-12 18:42:00,
2013-02-12 13:47:00,60.0,32.2,30.02,SSE,150,0.0,0.0,35,0.00,CLR,,0.00,WeatherDisplay:10.37,2013-02-12 18:47:00,
2013-02-12 13:52:00,60.2,34.5,30.02,SSE,150,0.0,0.0,38,0.00,CLR,,0.00,WeatherDisplay:10.37,2013-02-12 18:52:00,
2013-02-12 13:57:00,60.3,33.2,30.02,SSE,150,0.0,0.0,36,0.00,CLR,,0.00,WeatherDisplay:10.37,2013-02-12 18:57:00,
2013-02-12 14:03:00,60.3,32.5,30.02,SSE,150,0.0,0.0,35,0.00,CLR,,0.00,WeatherDisplay:10.37,2013-02-12 19:03:00,
2013-02-12 14:08:00,60.3,33.2,30.03,SSE,150,0.0,0.0,36,0.00,CLR,,0.00,WeatherDisplay:10.37,2013-02-12 19:08:00,
2013-02-12 14:13:00,60.4,34.0,30.02,SSE,150,0.0,0.0,37,0.00,CLR,,0.00,WeatherDisplay:10.37,2013-02-12 19:13:00,
2013-02-12 14:18:00,60.5,33.4,30.02,SSE,150,0.0,0.0,36,0.00,CLR,,0.00,WeatherDisplay:10.37,2013-02-12 19:18:00,
2013-02-12 14:23:00,60.4,32.6,30.01,East,83,1.1,1.1,35,0.00,CLR,,0.00,WeatherDisplay:10.37,2013-02-12 19:23:00,
2013-02-12 14:28:00,60.2,31.0,30.00,East,83,0.0,0.0,33,0.00,CLR,,0.00,WeatherDisplay:10.37,2013-02-12 19:28:00,
2013-02-12 14:33:00,60.1,32.3,30.01,East,83,0.0,0.0,35,0.00,CLR,,0.00,WeatherDisplay:10.37,2013-02-12 19:33:00,
2013-02-12 14:38:00,60.0,30.8,30.00,East,83,0.0,0.0,33,0.00,CLR,,0.00,WeatherDisplay:10.37,2013-02-12 19:38:00,
2013-02-12 14:43:00,59.9,30.7,30.00,East,83,0.0,0.0,33,0.00,CLR,,0.00,WeatherDisplay:10.37,2013-02-12 19:43:00,
2013-02-12 14:48:00,59.8,32.8,29.99,East,83,0.0,0.0,36,0.00,CLR,,0.00,WeatherDisplay:10.37,2013-02-12 19:48:00,
2013-02-12 14:53:00,59.7,32.7,30.00,East,83,0.0,0.0,36,0.00,CLR,,0.00,WeatherDisplay:10.37,2013-02-12 19:53:00,
2013-02-12 14:58:00,59.7,33.4,30.00,East,83,0.0,0.0,37,0.00,CLR,,0.00,WeatherDisplay:10.37,2013-02-12 19:58:00,
2013-02-12 15:03:00,59.7,33.4,29.99,East,83,0.0,0.0,37,0.00,CLR,,0.00,WeatherDisplay:10.37,2013-02-12 20:03:00,
2013-02-12 15:08:00,59.7,34.0,29.99,East,83,0.0,0.0,38,0.00,CLR,,0.00,WeatherDisplay:10.37,2013-02-12 20:08:00,
2013-02-12 15:13:00,59.7,34.0,30.00,East,83,0.0,0.0,38,0.00,CLR,,0.00,WeatherDisplay:10.37,2013-02-12 20:13:00,
2013-02-12 15:18:00,59.6,33.9,30.00,East,83,0.0,0.0,38,0.00,CLR,,0.00,WeatherDisplay:10.37,2013-02-12 20:18:00,
2013-02-12 15:23:00,59.6,33.9,30.00,East,83,0.0,0.0,38,0.00,CLR,,0.00,WeatherDisplay:10.37,2013-02-12 20:23:00,
2013-02-12 15:28:00,59.5,34.5,30.00,East,83,0.0,0.0,39,0.00,CLR,,0.00,WeatherDisplay:10.37,2013-02-12 20:28:00,
2013-02-12 15:33:00,59.5,34.5,30.00,SSE,154,0.0,0.0,39,0.00,CLR,,0.00,WeatherDisplay:10.37,2013-02-12 20:33:00,
2013-02-12 15:38:00,59.4,33.8,30.00,SSE,154,0.0,0.0,38,0.00,CLR,,0.00,WeatherDisplay:10.37,2013-02-12 20:38:00,
2013-02-12 15:43:00,59.3,33.0,30.00,SSE,154,0.0,0.0,37,0.00,CLR,,0.00,WeatherDisplay:10.37,2013-02-12 20:43:00,
2013-02-12 15:48:00,59.3,33.7,30.00,SSE,154,0.0,0.0,38,0.00,CLR,,0.00,WeatherDisplay:10.37,2013-02-12 20:48:00,
2013-02-12 15:53:00,59.5,38.1,30.00,SSE,154,0.0,0.0,45,0.00,CLR,,0.00,WeatherDisplay:10.37,2013-02-12 20:53:00,
2013-02-12 15:58:00,60.6,39.7,30.00,SSE,154,0.0,0.0,46,0.00,CLR,,0.00,WeatherDisplay:10.37,2013-02-12 20:58:00,
2013-02-12 16:03:00,61.9,37.9,30.00,SSE,154,0.0,0.0,41,0.00,CLR,,0.00,WeatherDisplay:10.37,2013-02-12 21:03:00,
2013-02-12 16:08:00,61.9,36.0,30.00,SSE,154,0.0,0.0,38,0.00,CLR,,0.00,WeatherDisplay:10.37,2013-02-12 21:08:00,
2013-02-12 16:13:00,61.4,35.5,30.00,SSE,154,0.0,0.0,38,0.00,CLR,,0.00,WeatherDisplay:10.37,2013-02-12 21:13:00,
2013-02-12 16:18:00,60.7,34.9,30.00,SSE,154,0.0,0.0,38,0.00,CLR,,0.00,WeatherDisplay:10.37,2013-02-12 21:18:00,
2013-02-12 16:23:00,60.1,34.4,30.00,SSE,154,0.0,0.0,38,0.00,CLR,,0.00,WeatherDisplay:10.37,2013-02-12 21:23:00,
2013-02-12 16:28:00,59.6,35.2,30.00,SSE,154,0.0,0.0,40,0.00,CLR,,0.00,WeatherDisplay:10.37,2013-02-12 21:28:00,
2013-02-12 16:33:00,59.2,34.9,30.00,SSE,154,0.0,0.0,40,0.00,CLR,,0.00,WeatherDisplay:10.37,2013-02-12 21:33:00,
2013-02-12 16:38:00,58.9,39.2,30.00,SSE,154,0.0,0.0,48,0.00,CLR,,0.00,WeatherDisplay:10.37,2013-02-12 21:38:00,
2013-02-12 16:43:00,58.8,37.5,30.00,SSE,154,0.0,0.0,45,0.00,CLR,,0.00,WeatherDisplay:10.37,2013-02-12 21:43:00,
2013-02-12 16:48:00,58.5,38.3,29.99,SSE,154,0.0,0.0,47,0.00,CLR,,0.00,WeatherDisplay:10.37,2013-02-12 21:48:00,
2013-02-12 16:53:00,58.3,39.2,29.98,SSE,154,0.0,0.0,49,0.00,CLR,,0.00,WeatherDisplay:10.37,2013-02-12 21:53:00,
2013-02-12 16:58:00,58.1,40.1,29.99,SSE,154,0.0,0.0,51,0.00,CLR,,0.00,WeatherDisplay:10.37,2013-02-12 21:58:00,
2013-02-12 17:03:00,57.9,39.9,29.98,SSE,154,0.0,0.0,51,0.00,CLR,,0.00,WeatherDisplay:10.37,2013-02-12 22:03:00,
2013-02-12 17:08:00,57.7,41.2,29.97,SSE,154,0.0,0.0,54,0.00,CLR,,0.00,WeatherDisplay:10.37,2013-02-12 22:08:00,
2013-02-12 17:13:00,57.4,41.8,29.98,SSE,154,0.0,0.0,56,0.00,CLR,,0.00,WeatherDisplay:10.37,2013-02-12 22:13:00,
2013-02-12 17:18:00,57.1,41.1,29.98,SSE,154,0.0,0.0,55,0.00,CLR,,0.00,WeatherDisplay:10.37,2013-02-12 22:18:00,
2013-02-12 17:23:00,57.0,42.4,29.99,SSE,154,0.0,0.0,58,0.00,CLR,,0.00,WeatherDisplay:10.37,2013-02-12 22:23:00,
2013-02-12 17:28:00,56.7,42.1,29.98,SSE,154,0.0,0.0,58,0.00,CLR,,0.00,WeatherDisplay:10.37,2013-02-12 22:28:00,
2013-02-12 17:33:00,56.4,42.2,29.98,SSE,154,0.0,0.0,59,0.00,CLR,,0.00,WeatherDisplay:10.37,2013-02-12 22:33:00,
2013-02-12 17:38:00,56.0,41.4,29.97,SSE,154,0.0,0.0,58,0.00,CLR,,0.00,WeatherDisplay:10.37,2013-02-12 22:38:00,
2013-02-12 17:43:00,55.6,42.8,29.95,SSE,154,0.0,0.0,62,0.00,CLR,,0.00,WeatherDisplay:10.37,2013-02-12 22:43:00,
2013-02-12 17:48:00,55.1,43.1,29.94,SSE,154,0.0,0.0,64,0.00,CLR,,0.00,WeatherDisplay:10.37,2013-02-12 22:48:00,
2013-02-12 17:53:00,54.7,43.6,29.93,SSE,154,0.0,0.0,66,0.00,CLR,,0.00,WeatherDisplay:10.37,2013-02-12 22:53:00,
2013-02-12 17:58:00,54.6,44.6,29.94,SSE,154,0.0,0.0,69,0.00,CLR,,0.00,WeatherDisplay:10.37,2013-02-12 22:58:00,
2013-02-12 18:03:00,54.5,44.9,29.95,SSE,154,0.0,0.0,70,0.00,CLR,,0.00,WeatherDisplay:10.37,2013-02-12 23:03:00,
2013-02-12 18:08:00,54.2,42.7,29.94,SSE,154,0.0,0.0,65,0.00,CLR,,0.00,WeatherDisplay:10.37,2013-02-12 23:08:00,
2013-02-12 18:13:00,54.2,45.7,29.93,SSE,154,0.0,0.0,73,0.00,CLR,,0.00,WeatherDisplay:10.37,2013-02-12 23:13:00,
2013-02-12 18:18:00,54.1,43.8,29.91,SSE,154,0.0,0.0,68,0.00,CLR,,0.00,WeatherDisplay:10.37,2013-02-12 23:18:00,
2013-02-12 18:23:00,53.8,45.0,29.90,SSE,154,0.0,0.0,72,0.00,CLR,,0.00,WeatherDisplay:10.37,2013-02-12 23:23:00,
2013-02-12 18:28:00,53.7,45.6,29.89,SSE,154,0.0,0.0,74,0.00,CLR,,0.00,WeatherDisplay:10.37,2013-02-12 23:28:00,
2013-02-12 18:33:00,53.6,46.2,29.90,SSE,154,0.0,0.0,76,0.00,CLR,,0.00,WeatherDisplay:10.37,2013-02-12 23:33:00,
2013-02-12 18:38:00,53.5,46.1,29.91,SSE,154,0.0,0.0,76,0.00,CLR,,0.00,WeatherDisplay:10.37,2013-02-12 23:38:00,
2013-02-12 18:43:00,53.5,46.1,29.92,SSE,154,0.0,0.0,76,0.00,CLR,,0.00,WeatherDisplay:10.37,2013-02-12 23:43:00,
2013-02-12 18:48:00,53.8,48.4,29.96,SSE,154,0.0,0.0,82,0.00,CLR,,0.00,WeatherDisplay:10.37,2013-02-12 23:48:00,
2013-02-12 18:53:00,54.3,45.8,29.98,SSE,154,0.0,0.0,73,0.00,CLR,,0.00,WeatherDisplay:10.37,2013-02-12 23:53:00,
2013-02-12 18:58:00,55.4,48.7,29.98,SSE,154,0.0,0.0,78,0.00,CLR,,0.00,WeatherDisplay:10.37,2013-02-12 23:58:00,
2013-02-12 19:03:00,56.0,45.6,29.99,SSE,154,0.0,0.0,68,0.00,CLR,,0.00,WeatherDisplay:10.37,2013-02-13 00:03:00,
2013-02-12 19:08:00,55.8,45.0,29.98,SSE,154,0.0,0.0,67,0.01,RA,,0.01,WeatherDisplay:10.37,2013-02-13 00:08:00,
2013-02-12 19:13:00,55.0,45.4,29.98,SSE,154,0.0,0.0,70,0.01,RA,,0.01,WeatherDisplay:10.37,2013-02-13 00:13:00,
2013-02-12 19:18:00,54.4,45.9,29.99,SSE,154,0.0,0.0,73,0.01,CLR,,0.01,WeatherDisplay:10.37,2013-02-13 00:18:00,
2013-02-12 19:23:00,53.7,46.0,29.98,SSE,154,0.0,0.0,75,0.01,CLR,,0.01,WeatherDisplay:10.37,2013-02-13 00:23:00,
2013-02-12 19:28:00,53.1,46.4,29.97,SSE,154,0.0,0.0,78,0.01,CLR,,0.01,WeatherDisplay:10.37,2013-02-13 00:28:00,
2013-02-12 19:33:00,52.4,46.7,29.97,SSE,154,0.0,0.0,81,0.01,CLR,,0.01,WeatherDisplay:10.37,2013-02-13 00:33:00,
2013-02-12 19:38:00,52.0,47.6,29.97,SSE,154,0.0,0.0,85,0.01,CLR,,0.01,WeatherDisplay:10.37,2013-02-13 00:38:00,
2013-02-12 19:43:00,51.6,47.9,29.97,SSE,154,0.0,0.0,87,0.01,CLR,,0.01,WeatherDisplay:10.37,2013-02-13 00:43:00,
2013-02-12 19:49:00,51.4,48.3,29.97,SSE,154,0.0,0.0,89,0.02,RA,,0.02,WeatherDisplay:10.37,2013-02-13 00:49:00,
2013-02-12 19:54:00,51.2,48.7,29.97,SSE,154,0.0,0.0,91,0.02,RA,,0.02,WeatherDisplay:10.37,2013-02-13 00:54:00,
2013-02-12 19:59:00,51.2,49.0,29.98,SSE,154,0.0,0.0,92,0.02,,,0.02,WeatherDisplay:10.37,2013-02-13 00:59:00,
2013-02-12 20:04:00,51.1,49.4,29.99,SSE,154,0.0,0.0,94,0.02,CLR,,0.02,WeatherDisplay:10.37,2013-02-13 01:04:00,
2013-02-12 20:09:00,50.8,48.8,29.98,SSE,154,0.0,0.0,93,0.01,CLR,,0.02,WeatherDisplay:10.37,2013-02-13 01:09:00,
2013-02-12 20:14:00,50.5,49.4,29.98,SSE,154,0.0,0.0,96,0.01,CLR,,0.02,WeatherDisplay:10.37,2013-02-13 01:14:00,
2013-02-12 20:19:00,50.4,49.3,29.98,SSE,154,0.0,0.0,96,0.02,RA,,0.03,WeatherDisplay:10.37,2013-02-13 01:19:00,
2013-02-12 20:24:00,50.4,49.6,29.99,SSE,154,0.0,0.0,97,0.03,RA,,0.04,WeatherDisplay:10.37,2013-02-13 01:24:00,
2013-02-12 20:29:00,50.4,49.6,29.99,SSE,154,0.0,0.0,97,0.03,RA,,0.04,WeatherDisplay:10.37,2013-02-13 01:29:00,
2013-02-12 20:34:00,51.0,51.0,29.99,SSE,154,0.0,0.0,100,0.03,CLR,,0.04,WeatherDisplay:10.37,2013-02-13 01:34:00,
2013-02-12 20:39:00,51.8,51.3,29.98,SSE,154,0.0,0.0,98,0.03,CLR,,0.04,WeatherDisplay:10.37,2013-02-13 01:39:00,
2013-02-12 20:44:00,51.0,50.2,29.97,SSE,154,0.0,0.0,97,0.03,CLR,,0.04,WeatherDisplay:10.37,2013-02-13 01:44:00,
2013-02-12 20:49:00,50.4,49.9,29.96,SSE,154,0.0,0.0,98,0.02,CLR,,0.04,WeatherDisplay:10.37,2013-02-13 01:49:00,
2013-02-12 20:54:00,50.2,49.7,29.96,SSE,154,0.0,0.0,98,0.02,CLR,,0.04,WeatherDisplay:10.37,2013-02-13 01:54:00,
2013-02-12 20:59:00,50.0,49.5,29.96,SSE,154,0.0,0.0,98,0.02,CLR,,0.04,WeatherDisplay:10.37,2013-02-13 01:59:00,
2013-02-12 21:04:00,50.0,49.7,29.96,SSE,154,0.0,0.0,99,0.02,CLR,,0.04,WeatherDisplay:10.37,2013-02-13 02:04:00,
2013-02-12 21:09:00,49.8,49.8,29.97,SSE,154,0.0,0.0,100,0.02,CLR,,0.04,WeatherDisplay:10.37,2013-02-13 02:09:00,
2013-02-12 21:14:00,51.5,51.5,29.98,SSE,154,0.0,0.0,100,0.02,CLR,,0.04,WeatherDisplay:10.37,2013-02-13 02:14:00,
2013-02-12 21:19:00,51.8,51.5,29.98,SSE,154,0.0,0.0,99,0.01,CLR,,0.04,WeatherDisplay:10.37,2013-02-13 02:19:00,
2013-02-12 21:24:00,51.2,50.9,29.99,SSE,154,0.0,0.0,99,0.00,CLR,,0.04,WeatherDisplay:10.37,2013-02-13 02:24:00,
2013-02-12 21:29:00,50.9,50.6,29.99,SSE,154,0.0,0.0,99,0.01,RA,,0.05,WeatherDisplay:10.37,2013-02-13 02:29:00,
2013-02-12 21:34:00,50.6,50.3,30.00,SSE,154,0.0,0.0,99,0.01,RA,,0.05,WeatherDisplay:10.37,2013-02-13 02:34:00,
2013-02-12 21:39:00,50.2,49.7,29.98,SSE,154,0.0,0.0,98,0.01,,,0.06,WeatherDisplay:10.37,2013-02-13 02:39:00,
2013-02-12 21:44:00,49.6,49.3,29.98,SSE,154,0.0,0.0,99,0.02,RA,,0.06,WeatherDisplay:10.37,2013-02-13 02:44:00,
2013-02-12 21:49:00,49.4,49.4,29.98,SSE,154,0.0,0.0,100,0.02,RA,,0.06,WeatherDisplay:10.37,2013-02-13 02:49:00,
2013-02-12 21:54:00,49.4,49.4,29.98,SSE,154,0.0,0.0,100,0.02,CLR,,0.06,WeatherDisplay:10.37,2013-02-13 02:54:00,
2013-02-12 21:59:00,49.2,49.2,29.97,SSE,154,0.0,0.0,100,0.02,CLR,,0.06,WeatherDisplay:10.37,2013-02-13 02:59:00,
2013-02-12 22:04:00,49.0,49.0,29.97,SSE,154,0.0,0.0,100,0.03,RA,,0.07,WeatherDisplay:10.37,2013-02-13 03:04:00,
2013-02-12 22:09:00,48.6,48.6,29.97,SSE,154,0.0,0.0,100,0.04,RA,,0.08,WeatherDisplay:10.37,2013-02-13 03:09:00,
2013-02-12 22:14:00,48.4,48.4,29.96,SSE,154,0.0,0.0,100,0.04,RA,,0.08,WeatherDisplay:10.37,2013-02-13 03:14:00,
2013-02-12 22:19:00,48.6,48.6,29.98,SSE,154,0.0,0.0,100,0.05,RA,,0.09,WeatherDisplay:10.37,2013-02-13 03:19:00,
2013-02-12 22:24:00,48.7,48.7,30.00,SSE,154,0.0,0.0,100,0.07,RA,,0.11,WeatherDisplay:10.37,2013-02-13 03:24:00,
2013-02-12 22:29:00,48.6,48.6,29.99,SSE,154,0.0,0.0,100,0.07,RA,,0.12,WeatherDisplay:10.37,2013-02-13 03:29:00,
2013-02-12 22:34:00,48.4,48.4,29.96,SSE,154,0.0,0.0,100,0.07,RA,,0.12,WeatherDisplay:10.37,2013-02-13 03:34:00,
2013-02-12 22:39:00,48.1,48.1,29.96,SSE,154,0.0,0.0,100,0.08,RA,,0.14,WeatherDisplay:10.37,2013-02-13 03:39:00,
2013-02-12 22:44:00,48.3,48.3,29.96,SSE,154,0.0,0.0,100,0.09,RA,,0.15,WeatherDisplay:10.37,2013-02-13 03:44:00,
2013-02-12 22:49:00,48.6,48.6,29.96,SSE,154,0.0,0.0,100,0.09,RA,,0.15,WeatherDisplay:10.37,2013-02-13 03:49:00,
2013-02-12 22:54:00,48.8,48.8,29.96,SSE,154,0.0,0.0,100,0.10,RA,,0.16,WeatherDisplay:10.37,2013-02-13 03:54:00,
2013-02-12 22:59:00,48.7,48.7,29.96,SSE,154,0.0,0.0,100,0.10,RA,,0.16,WeatherDisplay:10.37,2013-02-13 03:59:00,
2013-02-12 23:04:00,48.6,48.6,29.95,SSE,154,0.0,0.0,100,0.09,CLR,,0.16,WeatherDisplay:10.37,2013-02-13 04:04:00,
2013-02-12 23:09:00,48.6,48.6,29.97,SSE,154,0.0,0.0,100,0.08,CLR,,0.16,WeatherDisplay:10.37,2013-02-13 04:09:00,
2013-02-12 23:14:00,48.7,48.7,29.96,SSE,154,0.0,0.0,100,0.08,CLR,,0.16,WeatherDisplay:10.37,2013-02-13 04:14:00,
2013-02-12 23:19:00,48.7,48.7,29.97,SSE,154,0.0,0.0,100,0.07,CLR,,0.16,WeatherDisplay:10.37,2013-02-13 04:19:00,
2013-02-12 23:24:00,48.6,48.6,29.97,SSE,154,0.0,0.0,100,0.05,CLR,,0.16,WeatherDisplay:10.37,2013-02-13 04:24:00,
2013-02-12 23:29:00,48.3,48.3,29.95,SSE,154,0.0,0.0,100,0.04,CLR,,0.16,WeatherDisplay:10.37,2013-02-13 04:29:00,
2013-02-12 23:34:00,48.1,48.1,29.95,SSE,154,0.0,0.0,100,0.04,CLR,,0.16,WeatherDisplay:10.37,2013-02-13 04:34:00,
2013-02-12 23:39:00,48.0,48.0,29.95,SSE,154,0.0,0.0,100,0.02,CLR,,0.16,WeatherDisplay:10.37,2013-02-13 04:39:00,
2013-02-12 23:44:00,47.8,47.8,29.93,SSE,154,0.0,0.0,100,0.01,CLR,,0.16,WeatherDisplay:10.37,2013-02-13 04:44:00,
2013-02-12 23:49:00,47.5,47.5,29.93,SSE,154,0.0,0.0,100,0.01,CLR,,0.16,WeatherDisplay:10.37,2013-02-13 04:49:00,
2013-02-12 23:54:00,47.5,47.5,29.93,SSE,154,0.0,0.0,100,0.00,CLR,,0.16,WeatherDisplay:10.37,2013-02-13 04:54:00,
2013-02-12 23:59:00,47.4,47.4,29.91,SSE,154,0.0,0.0,100,0.00,CLR,,0.16,WeatherDisplay:10.37,2013-02-13 04:59:00,